Retour au catalogue

COSMOS 589

ActifMilitaireLEO
NORAD 6846·PAYLOAD·🇷🇺 Russia

Lancé Oct 2, 1973 depuis Plesetsk Cosmodrome

Loading…

Prochains Passages (prochaines 24 heures)

TLE

FraisSource: Space-Track

Époque: Sep 14, 2026, 06:52 UTC

1 06846U 73069B   26257.28631391 -.00000013  00000-0  17486-4 0  9999
2 06846  74.0045  11.8653 0046405 105.3723 280.9739 12.53236906422351

Suivez COSMOS 589 en temps réel avec AllMySat

Download on the App Store